Weather History for Grand Rapids, MI

Change the Weather History Date:

Sunday, November 24, 2013

  Actual Average Record
Temperature  
Mean Temperature 22 °F 37 °F  
Max Temperature 26 °F 43 °F 66 °F (1931)
Min Temperature 17 °F 30 °F -9 °F (1950)
Degree Days  
Heating Degree Days 43 28  
Month to date heating degree days 587 567  
Since 1 July heating degree days 1101 1159  
Cooling Degree Days 0 0  
Month to date cooling degree days 0 0  
Year to date cooling degree days 767 699  
Moisture  
Dew Point 10 °F    
Average Humidity 60    
Maximum Humidity 73    
Minimum Humidity 47    
Precipitation  
Precipitation T in 0.11 in 1.09 in (1973)
Month to date precipitation 3.67 2.87  
Year to date precipitation 42.70 35.13  
Snow  
Snow T in 0.30 in 9.70 in (2004)
Month to date snowfall 0.4 4.5  
Since 1 July snowfall 0.4 5.0  
Since 1 September snowfall 0.4 5.0  
Snow Depth T in    
Sea Level Pressure  
Sea Level Pressure 30.56 in    
Wind  
Wind Speed 10 mph (West)    
Max Wind Speed 20 mph    
Max Gust Speed 25 mph    
Visibility 9 miles    
Events Snow    
T = Trace of Precipitation, MM = Missing Value Source: NWS Daily Summary

Daily Weather History Graph

Daily Weather History Graph

Search for Another Location

Airport:

Trip Planner

Search our weather history database for the weather conditions in past years. The results will help you decide how hot, cold, wet, or windy it might be!

Date:

Astronomy

Nov. 24, 2013 Rise Set
Actual Time 7:45 AM EST 5:11 PM EST
Civil Twilight 7:14 AM EST 5:43 PM EST
Nautical Twilight 6:39 AM EST 6:17 PM EST
Astronomical Twilight 6:05 AM EST 6:51 PM EST
Moon 11:41 PM EST (11/24) 12:28 PM EST (11/24)
Length of Visible Light 10h 28m
Length of Day
9h 26m
Waning Gibbous, 61% of the Moon is Illuminated
Nov 24
Waning Gibbous
Nov 25
Last Quarter
Dec 2
New
Dec 9
First Quarter
Dec 17
Full

Hourly Weather History & Observations

Time (EST) Temp. Windchill Dew Point Humidity Pressure Visibility Wind Dir Wind Speed Gust Speed Precip Events Conditions
12:53 AM 17.1 °F 8.7 °F 8.1 °F 68% 30.60 in 10.0 mi NW 5.8 mph - N/A   Clear
1:53 AM 18.0 °F 7.7 °F 6.1 °F 60% 30.60 in 10.0 mi NNW 8.1 mph - N/A   Clear
2:53 AM 19.0 °F 10.0 °F 7.0 °F 59% 30.61 in 10.0 mi NW 6.9 mph - N/A   Overcast
3:53 AM 19.9 °F 10.1 °F 8.1 °F 60% 30.61 in 10.0 mi WNW 8.1 mph - N/A   Overcast
4:53 AM 19.9 °F 10.1 °F 10.0 °F 65% 30.60 in 10.0 mi NNW 8.1 mph - N/A   Overcast
5:53 AM 19.0 °F 9.0 °F 10.0 °F 68% 30.60 in 10.0 mi WNW 8.1 mph - N/A   Partly Cloudy
6:53 AM 19.0 °F 10.0 °F 12.0 °F 74% 30.61 in 10.0 mi WNW 6.9 mph - N/A   Mostly Cloudy
7:53 AM 19.0 °F 11.1 °F 12.0 °F 74% 30.62 in 10.0 mi WNW 5.8 mph - N/A   Mostly Cloudy
8:53 AM 21.0 °F 14.6 °F 12.0 °F 68% 30.63 in 10.0 mi Variable 4.6 mph - N/A   Mostly Cloudy
9:53 AM 23.0 °F 12.4 °F 10.0 °F 58% 30.65 in 10.0 mi NNW 10.4 mph - N/A   Mostly Cloudy
10:53 AM 23.0 °F 13.1 °F 9.0 °F 55% 30.65 in 10.0 mi NW 9.2 mph - N/A   Mostly Cloudy
11:53 AM 24.1 °F 14.4 °F 9.0 °F 53% 30.63 in 10.0 mi NW 9.2 mph - N/A   Overcast
12:53 PM 25.0 °F 13.6 °F 10.9 °F 55% 30.60 in 10.0 mi West 12.7 mph - N/A   Mostly Cloudy
1:53 PM 25.0 °F 16.3 °F 12.9 °F 60% 30.58 in 5.0 mi West 8.1 mph - 0.00 in Snow Light Snow
2:27 PM 24.8 °F 15.3 °F 15.8 °F 69% 30.53 in 8.0 mi WSW 9.2 mph - 0.00 in Snow Light Snow
2:53 PM 24.1 °F 13.7 °F 16.0 °F 71% 30.57 in 5.0 mi WSW 10.4 mph - 0.00 in Snow Light Snow
3:37 PM 24.8 °F 14.6 °F 15.8 °F 69% 30.52 in 1.8 mi WSW 10.4 mph - 0.00 in Snow Light Snow
3:53 PM 24.1 °F 13.1 °F 16.0 °F 71% 30.56 in 5.0 mi West 11.5 mph - 0.00 in   Haze
4:53 PM 24.1 °F 13.7 °F 12.0 °F 60% 30.54 in 10.0 mi WSW 10.4 mph - 0.00 in   Scattered Clouds
5:53 PM 23.0 °F 15.8 °F 10.9 °F 60% 30.51 in 10.0 mi SSW 5.8 mph - N/A   Scattered Clouds
6:53 PM 23.0 °F 13.9 °F 10.9 °F 60% 30.50 in 10.0 mi SSW 8.1 mph - N/A   Overcast
7:53 PM 23.0 °F 11.1 °F 10.0 °F 58% 30.48 in 10.0 mi SSW 12.7 mph - N/A   Scattered Clouds
8:53 PM 21.9 °F 10.4 °F 9.0 °F 58% 30.45 in 10.0 mi SSW 11.5 mph - N/A   Clear
9:53 PM 21.9 °F 8.7 °F 6.1 °F 51% 30.41 in 10.0 mi SSW 15.0 mph - N/A   Clear
10:53 PM 21.9 °F 8.2 °F 5.0 °F 48% 30.40 in 10.0 mi SSW 16.1 mph - N/A   Clear
11:53 PM 23.0 °F 10.1 °F 6.1 °F 48% 30.38 in 10.0 mi SSW 15.0 mph - N/A   Clear